Location: Aulus
(42.7909°N, 1.3399°E)
Time: 20:21:54
(UTC+00:00)

Cosmos 2360 Rocket - Pass Details

Date: 19 May 2025
Orbit: 834 x 842 km, 71.0° (Epoch: 21 June)

Event Time Altitude Azimuth Distance (km) Brightness Sun altitude
Rises 23:10:21 0° 341° (NNW) 3,391 6.6 -26.5°
Reaches altitude 10° 23:12:58 10° 349° (N) 2,453 5.6 -26.6°
Maximum altitude 23:18:13 39° 58° (ENE) 1,229 3.1 -26.8°
Enters shadow 23:19:33 34° 89° (E) 1,340 3.1 -26.8°
